"Pseudo-MPEC" for C0J4E45

Created 2023 Sep 26 14:22:03 UT using Find_Orb

Click here for an explanation of pseudo-MPECs

 
 Astrometry: 
     C0J4E45* C2023 09 17.40105002 11 38.922+11 45 54.14   ~9HIb 20.33GVNEOCPV00
     C0J4E45  C2023 09 17.40650302 11 47.389+11 46 01.31   ~9HIb       VNEOCPV00
     C0J4E45  C2023 09 17.41195102 11 55.903+11 46 08.94   ~9HIb 20.80GVNEOCPV00
     C0J4E45  C2023 09 17.41739802 12 04.244+11 46 16.25   ~9HIb       VNEOCPV00

Station data:
(V00) Kitt Peak-Bok  (N31.963125 W111.600190)  US/Arizona.  Observers T. A.
   Pruyne, B. M. Africano, E. J. Christensen, G. A. Farneth, D. C. Fuls, A.
   R. Gibbs, A. D. Grauer, H. Gröller, J. A. Johnson, R. A. Kowalski, S. M.
   Larson, G. J. Leonard, D. Rankin, R. L. Seaman, F. C. Shelly, K. W.
   Wierzchoś. 2.25-m reflector + 4x4K mosaic CCD.

Orbital elements:  C0J4E45
   Perihelion 2023 Sep 28.42011 +/- 25.8 TT = 10:04:57 (JD 2460215.92011)
Epoch 2023 Sep 17.0 TT = JDT 2460204.5   Earth MOID: 0.0297   Ju: 0.0183
M 358.07218093 +/- 30               (J2000 ecliptic)             AutoNEOCP
n   0.16880921 +/- 0.287            Peri.  194.28965 +/- 49
a   3.24244006 +/- 3.68             Node   174.67342 +/- 0.8
e   0.6828571 +/- 0.225             Incl.    3.92411 +/- 2.4
P   5.84                   H 25.93  G  0.15   U 11.9  SR
q 1.02831680 +/- 0.268    Q 5.45656331 +/- 9.35
From 4 observations 2023 Sept. 17 (23.5 min); mean residual 0".40
Residuals in arcseconds: 
230917 V00  .24-  .11+    230917 V00  .91+  .05+    
230917 V00  .09-  .18-    230917 V00  .58-  .03+    

Ephemerides (geocentric):
Date (UTC) HH   RA             Dec           delta  r     elong  mag " sig PA
---- --------  ------------   ------------  ------ ------ -----  --- --------
2023 09 26 14  04 54 51.991   +10 57 59.28  .07325 1.0286 108.8 22.7  48d  80
2023 09 26 15  04 55 16.278   +10 57 24.45  .07343 1.0286 108.8 22.7  48d  80
2023 09 26 16  04 55 40.442   +10 56 49.67  .07360 1.0286 108.7 22.7  48d  80
2023 09 26 17  04 56 04.485   +10 56 14.94  .07378 1.0286 108.6 22.7  48d  80
2023 09 26 18  04 56 28.406   +10 55 40.24  .07395 1.0286 108.6 22.7  48d  80
2023 09 26 19  04 56 52.207   +10 55 05.60  .07413 1.0286 108.5 22.7  48d  80
2023 09 26 20  04 57 15.888   +10 54 31.00  .07430 1.0285 108.5 22.7  48d  80
2023 09 26 21  04 57 39.450   +10 53 56.45  .07448 1.0285 108.4 22.7  47d  80
2023 09 26 22  04 58 02.894   +10 53 21.95  .07465 1.0285 108.4 22.7  47d  80
2023 09 26 23  04 58 26.220   +10 52 47.50  .07483 1.0285 108.3 22.7  47d  80
2023 09 27 00  04 58 49.430   +10 52 13.09  .07500 1.0285 108.3 22.8  47d  80
2023 09 27 01  04 59 12.523   +10 51 38.74  .07518 1.0285 108.2 22.8  47d  80
2023 09 27 02  04 59 35.501   +10 51 04.44  .07535 1.0285 108.1 22.8  47d  80
2023 09 27 03  04 59 58.364   +10 50 30.20  .07553 1.0285 108.1 22.8  47d  80
2023 09 27 04  05 00 21.113   +10 49 56.00  .07571 1.0285 108.0 22.8  47d  80
2023 09 27 05  05 00 43.749   +10 49 21.87  .07588 1.0284 108.0 22.8  47d  80
2023 09 27 06  05 01 06.272   +10 48 47.78  .07606 1.0284 107.9 22.8  47d  80
2023 09 27 07  05 01 28.684   +10 48 13.75  .07624 1.0284 107.9 22.8  47d  80
2023 09 27 08  05 01 50.984   +10 47 39.78  .07641 1.0284 107.8 22.8  47d  80
2023 09 27 09  05 02 13.173   +10 47 05.86  .07659 1.0284 107.8 22.8  47d  80
2023 09 27 10  05 02 35.253   +10 46 32.00  .07677 1.0284 107.7 22.8  47d  80
2023 09 27 11  05 02 57.223   +10 45 58.20  .07695 1.0284 107.7 22.8  47d  80
2023 09 27 12  05 03 19.085   +10 45 24.46  .07712 1.0284 107.6 22.8  47d  80
2023 09 27 13  05 03 40.839   +10 44 50.77  .07730 1.0284 107.6 22.8  47d  80
2023 09 27 14  05 04 02.486   +10 44 17.15  .07748 1.0284 107.5 22.8  47d  80
2023 09 27 15  05 04 24.026   +10 43 43.58  .07766 1.0284 107.5 22.8  47d  80
2023 09 27 16  05 04 45.460   +10 43 10.08  .07784 1.0284 107.4 22.9  47d  80
2023 09 27 17  05 05 06.789   +10 42 36.64  .07802 1.0284 107.4 22.9  47d  80
2023 09 27 18  05 05 28.013   +10 42 03.26  .07819 1.0283 107.3 22.9  47d  80
2023 09 27 19  05 05 49.133   +10 41 29.94  .07837 1.0283 107.3 22.9  47d  80
2023 09 27 20  05 06 10.150   +10 40 56.68  .07855 1.0283 107.3 22.9  47d  80
2023 09 27 21  05 06 31.063   +10 40 23.49  .07873 1.0283 107.2 22.9  47d  80
2023 09 27 22  05 06 51.875   +10 39 50.36  .07891 1.0283 107.2 22.9  47d  80
2023 09 27 23  05 07 12.586   +10 39 17.29  .07909 1.0283 107.1 22.9  47d  80
2023 09 28 00  05 07 33.195   +10 38 44.29  .07927 1.0283 107.1 22.9  47d  80
2023 09 28 01  05 07 53.704   +10 38 11.35  .07945 1.0283 107.0 22.9  47d  80
2023 09 28 02  05 08 14.113   +10 37 38.48  .07963 1.0283 107.0 22.9  47d  80
2023 09 28 03  05 08 34.424   +10 37 05.67  .07981 1.0283 106.9 22.9  47d  80
2023 09 28 04  05 08 54.635   +10 36 32.93  .07999 1.0283 106.9 22.9  47d  80
2023 09 28 05  05 09 14.749   +10 36 00.26  .08017 1.0283 106.9 22.9  47d  80
2023 09 28 06  05 09 34.766   +10 35 27.65  .08035 1.0283 106.8 22.9  47d  80
2023 09 28 07  05 09 54.686   +10 34 55.11  .08053 1.0283 106.8 22.9  47d  80
2023 09 28 08  05 10 14.510   +10 34 22.63  .08071 1.0283 106.7 22.9  47d  80
2023 09 28 09  05 10 34.238   +10 33 50.22  .08089 1.0283 106.7 23.0  47d  80
2023 09 28 10  05 10 53.871   +10 33 17.89  .08107 1.0283 106.7 23.0  47d  80
2023 09 28 11  05 11 13.410   +10 32 45.61  .08126 1.0283 106.6 23.0  47d  80
2023 09 28 12  05 11 32.855   +10 32 13.41  .08144 1.0283 106.6 23.0  47d  80
2023 09 28 13  05 11 52.207   +10 31 41.28  .08162 1.0283 106.5 23.0  47d  80